< < Back
Terminal Aerodrome Forecast


Current Version              Previous Versions:   1  2  3  4  5  6  7  8  9  

Terminal Aerodrome Forecast

682
FTUS42 KTAE 302118 AAA
TAFVLD
TAF AMD
KVLD 302118Z 3021/3118 19005KT P6SM VCTS BKN040CB
      TEMPO 3021/3024 VRB15G25KT 1SM +TSRA
     FM310200 00000KT P6SM BKN250=



Latest METAR

043
SAUS70 KWBC 310100 RRB
MTRVLD
METAR KVLD 310053Z 19003KT 8SM FEW021 26/26 A2993 RMK AO2 SLP139
T02610256


USA.gov is the U.S. government's official web portal to all federal, state and local government web resources and services.